KG7AIQ Weather Reports


time (UTC)temp
F
wind
direction
speed
knots
gust
knots
rain 1hr
in
rain 24hr
in
rain mn
in
humidity
%
barometer
mb
20260503070315 52 286 1.7 4.3 0.00 0.04 0.00 75 1015.2
20260503070215 51 286 1.7 4.3 0.00 0.04 0.00 75 1015.2
20260503070104 51 280 1.7 4.3 0.00 0.04 0.00 75 1015.2
20260503060314 51 289 1.7 4.3 0.00 0.04 0.04 77 1015.6
20260503060215 51 289 1.7 4.3 0.00 0.04 0.04 77 1015.6
20260503060113 51 290 1.7 4.3 0.00 0.04 0.04 77 1015.6
20260503055046 51 276 1.7 1.7 0.00 0.04 0.04 79 1015.8
20260503055042 51 276 0.9 1.7 0.00 0.04 0.04 79 1015.6
20260503055032 51 276 1.7 1.7 0.00 0.04 0.04 79 1015.6
20260503054712 51 276 1.7 1.7 0.00 0.04 0.04 79 1015.8
20260503054708 51 276 1.7 1.7 0.00 0.04 0.04 79 1015.8
20260503054457 51 276 1.7 2.6 0.00 0.04 0.04 79 1015.8
20260503054423 51 276 1.7 2.6 0.00 0.04 0.04 79 1015.8
20260503054355 51 276 1.7 2.6 0.00 0.04 0.04 79 1015.8
20260503054250 51 276 1.7 2.6 0.00 0.04 0.04 79 1015.8
20260503054139 51 276 1.7 3.5 0.01 0.04 0.04 78 1015.8
20260503054135 51 276 1.7 3.5 0.01 0.04 0.04 79 1015.8
20260503053939 51 276 1.7 3.5 0.01 0.04 0.04 79 1015.8
20260503053931 51 276 1.7 3.5 0.01 0.04 0.04 78 1015.8
20260503053821 51 276 1.7 3.5 0.01 0.04 0.04 79 1015.8
20260503053817 51 276 1.7 3.5 0.01 0.04 0.04 78 1015.8
20260503053620 51 276 1.7 3.5 0.01 0.04 0.04 79 1015.8
20260503053616 51 276 1.7 3.5 0.01 0.04 0.04 78 1015.8
20260503053611 51 276 1.7 3.5 0.01 0.04 0.04 79 1015.8
20260503053257 51 276 1.7 3.5 0.01 0.04 0.04 79 1015.9
20260503053157 51 276 1.7 3.5 0.01 0.04 0.04 79 1015.9
20260503053059 51 292 1.7 3.5 0.01 0.04 0.04 79 1015.9
20260503053055 51 292 1.7 3.5 0.01 0.04 0.04 79 1015.9
20260503052911 51 292 1.7 3.5 0.01 0.04 0.04 79 1015.9
20260503052843 51 292 1.7 4.3 0.01 0.04 0.04 79 1015.9
20260503052742 51 292 1.7 4.3 0.01 0.04 0.04 79 1015.9
20260503052652 51 279 1.7 4.3 0.01 0.04 0.04 79 1015.9
20260503052648 51 279 1.7 4.3 0.01 0.04 0.04 79 1015.9
20260503052443 51 277 1.7 4.3 0.01 0.04 0.04 79 1015.9
20260503052408 51 284 1.7 4.3 0.01 0.04 0.04 79 1015.9
20260503052349 51 273 1.7 4.3 0.01 0.04 0.04 79 1015.9
20260503052345 51 281 1.7 4.3 0.01 0.04 0.04 79 1015.9
20260503052133 51 273 1.7 4.3 0.01 0.04 0.04 79 1015.9
20260503052030 51 272 1.7 4.3 0.01 0.04 0.04 79 1015.9
20260503051904 51 280 0.0 4.3 0.01 0.04 0.04 79 1015.9
20260503051825 51 276 0.0 3.5 0.01 0.04 0.04 79 1015.9
20260503051721 51 280 0.0 2.6 0.01 0.04 0.04 79 1015.9
20260503051622 51 280 0.0 2.6 0.01 0.04 0.04 79 1015.9
20260503051529 51 280 0.0 2.6 0.01 0.04 0.04 79 1015.9
20260503051525 51 280 0.0 2.6 0.01 0.04 0.04 79 1015.9
20260503051403 51 279 0.0 2.6 0.01 0.04 0.04 79 1015.9
20260503051329 51 280 0.0 2.6 0.01 0.04 0.04 79 1015.9
20260503051325 51 279 0.0 2.6 0.01 0.04 0.04 79 1015.9
20260503051119 51 279 0.0 1.7 0.01 0.04 0.04 79 1015.9
20260503051029 52 279 1.7 2.6 0.01 0.04 0.04 79 1015.9
20260503051025 52 279 0.0 1.7 0.01 0.04 0.04 79 1015.9
20260503050858 52 279 1.7 3.5 0.01 0.04 0.04 79 1015.9
20260503050817 52 279 1.7 3.5 0.01 0.04 0.04 79 1015.9
20260503050659 52 280 1.7 3.5 0.01 0.04 0.04 79 1015.9
20260503050557 52 279 1.7 3.5 0.01 0.04 0.04 79 1015.9
20260503050500 52 279 1.7 3.5 0.01 0.04 0.04 78 1015.9
20260503050456 52 279 1.7 3.5 0.01 0.04 0.04 79 1015.9
20260503050451 52 280 1.7 3.5 0.01 0.04 0.04 79 1015.9
20260503050306 52 280 1.7 3.5 0.01 0.04 0.04 78 1016.2
20260503050302 52 280 1.7 3.5 0.01 0.04 0.04 78 1016.2
20260503050258 52 279 1.7 3.5 0.01 0.04 0.04 78 1016.2
20260503045947 52 279 1.7 3.5 0.01 0.04 0.04 78 1016.2
20260503045859 52 304 1.7 3.5 0.01 0.04 0.04 79 1016.2
20260503045855 52 252 1.7 3.5 0.01 0.04 0.04 79 1016.2
20260503045850 52 275 1.7 3.5 0.01 0.04 0.04 79 1016.2
20260503045643 52 299 1.7 3.5 0.01 0.04 0.04 79 1016.2
20260503045539 52 259 1.7 1.7 0.01 0.04 0.04 79 1016.2
20260503045437 53 259 1.7 1.7 0.01 0.04 0.04 78 1016.2
20260503045400 53 259 1.7 1.7 0.01 0.04 0.04 78 1016.2
20260503045329 53 259 1.7 1.7 0.01 0.04 0.04 78 1016.2
20260503045219 53 259 1.7 2.6 0.01 0.04 0.04 78 1016.2
20260503045127 53 259 1.7 4.3 0.01 0.04 0.04 78 1016.2
20260503045112 53 259 1.7 2.6 0.01 0.04 0.04 78 1016.2
20260503045001 53 259 1.7 3.5 0.01 0.04 0.04 78 1016.2
20260503044829 53 259 1.7 4.3 0.01 0.04 0.04 78 1016.4
20260503044714 53 259 1.7 4.3 0.01 0.04 0.04 78 1016.4
20260503044615 53 259 1.7 4.3 0.01 0.04 0.04 77 1016.4
20260503044454 53 259 1.7 4.3 0.01 0.04 0.04 77 1016.4
20260503044401 53 259 1.7 4.3 0.01 0.04 0.04 77 1016.4
20260503044353 53 259 1.7 4.3 0.01 0.04 0.04 77 1016.4
20260503044137 53 259 1.7 4.3 0.01 0.04 0.04 77 1016.4
20260503044131 53 258 1.7 4.3 0.00 0.03 0.03 77 1016.4
20260503043928 53 257 0.0 3.5 0.00 0.03 0.03 76 1016.4
20260503043838 53 229 0.0 2.6 0.00 0.03 0.03 75 1016.4
20260503043834 53 236 0.0 3.5 0.00 0.03 0.03 75 1016.4
20260503043830 53 230 0.0 2.6 0.00 0.03 0.03 75 1016.4
20260503043623 53 229 0.0 2.6 0.00 0.03 0.03 75 1016.4
20260503043521 53 229 0.0 1.7 0.00 0.03 0.03 75 1016.4
20260503043504 53 229 0.0 1.7 0.00 0.03 0.03 75 1016.4
20260503043333 53 229 0.0 1.7 0.00 0.03 0.03 75 1016.4
20260503043251 53 229 0.0 1.7 0.00 0.03 0.03 74 1015.8
20260503043149 53 229 0.0 1.7 0.00 0.03 0.03 74 1015.8
20260503043050 53 229 0.0 1.7 0.00 0.03 0.03 74 1015.8
20260503043041 53 229 1.7 1.7 0.00 0.03 0.03 73 1015.8
20260503042835 53 229 1.7 1.7 0.00 0.03 0.03 73 1015.8
20260503042715 53 229 1.7 1.7 0.00 0.03 0.03 73 1015.8
20260503042709 53 229 1.7 1.7 0.00 0.03 0.03 73 1015.8
20260503042442 53 229 1.7 2.6 0.00 0.03 0.03 73 1015.8
20260503042319 53 229 1.7 2.6 0.00 0.03 0.03 73 1015.8
20260503042223 53 229 1.7 2.6 0.00 0.03 0.03 74 1015.8
20260503042120 53 229 1.7 2.6 0.00 0.03 0.03 74 1015.8
20260503041955 53 229 1.7 2.6 0.00 0.03 0.03 74 1015.8
20260503041850 53 229 1.7 2.6 0.00 0.03 0.03 74 1015.8
20260503041814 53 200 1.7 2.6 0.00 0.03 0.03 74 1015.7
20260503041750 53 200 1.7 2.6 0.00 0.03 0.03 74 1015.7
20260503041646 53 200 1.7 2.6 0.00 0.03 0.03 74 1015.7
20260503041543 54 200 1.7 1.7 0.00 0.03 0.03 73 1015.7
20260503041534 53 200 1.7 2.6 0.00 0.03 0.03 73 1015.7
20260503041432 53 200 1.7 1.7 0.00 0.03 0.03 73 1015.7
20260503041417 54 200 1.7 1.7 0.00 0.03 0.03 73 1015.7
20260503041219 54 199 1.7 1.7 0.00 0.03 0.03 73 1015.7
20260503041106 54 199 1.7 1.7 0.00 0.03 0.03 73 1015.7
20260503041002 54 199 0.0 1.7 0.00 0.03 0.03 73 1015.7
20260503040849 54 199 0.0 1.7 0.00 0.03 0.03 73 1015.7
20260503040808 54 199 0.0 1.7 0.00 0.03 0.03 73 1015.7
20260503040750 54 199 0.0 1.7 0.00 0.03 0.03 73 1015.7
20260503040641 54 198 0.0 1.7 0.00 0.03 0.03 72 1015.7
20260503040540 54 198 0.0 1.7 0.00 0.03 0.03 72 1015.7
20260503040529 54 197 0.0 1.7 0.00 0.03 0.03 72 1015.7
20260503040309 54 158 0.0 1.7 0.00 0.03 0.03 72 1015.8
20260503040209 54 158 0.0 1.7 0.00 0.03 0.03 71 1015.8
20260503040039 54 158 1.7 2.6 0.00 0.03 0.03 71 1015.8
20260503035957 54 158 1.7 2.6 0.00 0.03 0.03 72 1015.8
20260503035913 54 158 1.7 2.6 0.00 0.03 0.03 71 1015.8
20260503035740 54 158 1.7 2.6 0.00 0.03 0.03 71 1015.8
20260503035636 54 158 1.7 2.6 0.00 0.03 0.03 71 1015.8
20260503035532 54 158 1.7 2.6 0.00 0.03 0.03 71 1015.8
20260503035439 54 158 1.7 2.6 0.00 0.03 0.03 70 1015.8
20260503035435 54 158 1.7 2.6 0.00 0.03 0.03 70 1015.8
20260503035230 54 158 1.7 2.6 0.00 0.03 0.03 70 1015.8
20260503035130 54 158 1.7 2.6 0.00 0.03 0.03 71 1015.8
20260503035030 54 158 1.7 3.5 0.00 0.03 0.03 71 1015.8
20260503034924 54 158 1.7 3.5 0.00 0.03 0.03 71 1015.8
20260503034829 54 159 1.7 3.5 0.00 0.03 0.03 71 1015.8
20260503034824 54 160 1.7 3.5 0.00 0.03 0.03 72 1015.8
20260503034617 54 160 1.7 3.5 0.00 0.03 0.03 72 1015.8
20260503034524 54 163 1.7 3.5 0.00 0.03 0.03 72 1015.8
20260503034520 54 159 1.7 3.5 0.00 0.03 0.03 71 1015.8
20260503034327 54 165 1.7 3.5 0.00 0.03 0.03 72 1015.8
20260503034323 54 61 1.7 5.2 0.00 0.03 0.03 72 1015.8
20260503034319 54 163 1.7 3.5 0.00 0.03 0.03 71 1015.8
20260503034314 54 163 1.7 3.5 0.00 0.03 0.03 71 1015.8
20260503034005 54 5 1.7 5.2 0.00 0.03 0.03 73 1015.8
20260503033902 54 110 1.7 5.2 0.00 0.03 0.03 73 1015.8
20260503033734 54 110 1.7 5.2 0.00 0.03 0.03 72 1015.8
20260503033644 54 110 1.7 5.2 0.00 0.03 0.03 72 1015.8
20260503033545 54 110 1.7 5.2 0.00 0.03 0.03 72 1015.8
20260503033508 54 110 1.7 5.2 0.00 0.03 0.03 72 1015.7
20260503033428 54 110 1.7 5.2 0.00 0.03 0.03 72 1015.8
20260503033342 54 110 1.7 5.2 0.00 0.03 0.03 72 1015.7
20260503033232 54 173 1.7 5.2 0.00 0.03 0.03 72 1015.7
20260503033228 54 110 1.7 5.2 0.00 0.03 0.03 72 1015.7
20260503033021 54 271 1.7 3.5 0.00 0.03 0.03 72 1015.7
20260503032922 54 242 0.0 3.5 0.00 0.03 0.03 73 1015.7
20260503032819 54 242 0.0 3.5 0.00 0.03 0.03 73 1015.7
20260503032734 54 166 0.0 2.6 0.00 0.03 0.03 74 1015.7
20260503032713 54 176 0.0 2.6 0.00 0.03 0.03 74 1015.7
20260503032612 54 228 0.0 1.7 0.00 0.03 0.03 74 1015.7
20260503032510 54 228 0.0 1.7 0.00 0.03 0.03 74 1015.7
20260503032408 54 228 0.0 1.7 0.00 0.03 0.03 74 1015.7
20260503032233 54 228 0.0 1.7 0.00 0.03 0.03 73 1015.7
20260503032148 54 228 0.0 1.7 0.00 0.03 0.03 73 1015.7
20260503032045 54 228 0.0 1.7 0.00 0.03 0.03 73 1015.7
20260503031932 54 228 0.0 1.7 0.00 0.03 0.03 73 1015.7
20260503031832 54 228 0.0 1.7 0.00 0.03 0.03 72 1015.7
20260503031705 54 228 0.0 1.7 0.00 0.03 0.03 72 1015.5
20260503031603 54 228 0.0 1.7 0.00 0.03 0.03 72 1015.5
20260503031559 54 228 0.0 1.7 0.00 0.03 0.03 72 1015.5
20260503031340 55 228 0.0 1.7 0.00 0.03 0.03 72 1015.5
20260503031227 55 228 0.0 1.7 0.00 0.03 0.03 71 1015.5
20260503031105 55 228 0.0 1.7 0.00 0.03 0.03 71 1015.5
20260503031002 55 228 0.0 1.7 0.00 0.03 0.03 72 1015.5
20260503030951 55 228 0.0 1.7 0.00 0.03 0.03 71 1015.5
20260503030947 55 228 0.0 1.7 0.00 0.03 0.03 71 1015.5
20260503030816 55 228 0.0 1.7 0.00 0.03 0.03 71 1015.5
20260503030615 55 228 0.0 1.7 0.00 0.03 0.03 71 1015.5
20260503030512 55 228 0.0 1.7 0.00 0.03 0.03 71 1015.5
20260503030508 55 228 0.0 1.7 0.00 0.03 0.03 70 1015.5
20260503030255 55 228 0.0 1.7 0.00 0.03 0.03 71 1014.8
20260503030209 55 228 0.0 1.7 0.00 0.03 0.03 71 1014.8
20260503030152 55 228 0.0 1.7 0.00 0.03 0.03 71 1014.8
20260503030052 55 228 0.0 2.6 0.00 0.03 0.03 71 1014.8
20260503030028 55 228 0.0 2.6 0.00 0.03 0.03 71 1014.8
20260503025815 55 228 0.0 2.6 0.00 0.03 0.03 71 1014.8
20260503025716 55 228 0.0 2.6 0.00 0.03 0.03 70 1014.8
20260503025707 55 228 0.0 2.6 0.00 0.03 0.03 70 1014.8
20260503025443 55 228 0.0 2.6 0.00 0.03 0.03 70 1014.8
20260503025328 55 228 0.0 2.6 0.00 0.03 0.03 69 1014.8
20260503025224 55 228 0.0 2.6 0.00 0.03 0.03 69 1014.8
20260503025154 55 228 0.0 2.6 0.00 0.03 0.03 69 1014.8
20260503025122 55 228 0.0 2.6 0.00 0.03 0.03 69 1014.8
20260503025022 55 308 0.0 1.7 0.00 0.03 0.03 70 1014.8
20260503024926 55 308 0.9 4.3 0.00 0.03 0.03 68 1014.8
20260503024922 55 308 0.9 1.7 0.00 0.03 0.03 69 1014.8
20260503024808 55 308 0.9 1.7 0.00 0.03 0.03 69 1014.8
20260503024757 55 308 0.9 4.3 0.00 0.03 0.03 69 1014.8
20260503024556 55 308 0.9 4.3 0.00 0.03 0.03 68 1014.8
20260503024435 55 308 0.9 4.3 0.00 0.03 0.03 68 1014.8
20260503024422 55 308 0.9 4.3 0.00 0.03 0.03 67 1014.8
20260503024406 55 308 0.9 4.3 0.00 0.03 0.03 67 1014.8
20260503024402 55 308 0.9 4.3 0.00 0.03 0.03 68 1014.8
20260503024122 55 308 0.9 4.3 0.00 0.03 0.03 67 1014.8
20260503024016 55 308 0.9 4.3 0.00 0.03 0.03 67 1014.8
20260503023915 55 308 1.7 4.3 0.00 0.03 0.03 68 1014.8
20260503023812 55 308 1.7 4.3 0.00 0.03 0.03 67 1014.8
20260503023704 55 309 1.7 4.3 0.00 0.03 0.03 68 1014.8
20260503023644 55 250 1.7 4.3 0.00 0.03 0.03 67 1014.8
20260503023603 55 276 1.7 4.3 0.00 0.03 0.03 68 1014.8
20260503023459 55 284 1.7 4.3 0.00 0.03 0.03 68 1014.8
20260503023357 55 283 1.7 4.3 0.00 0.03 0.03 68 1014.8
20260503023243 55 284 1.7 4.3 0.00 0.03 0.03 68 1014.8
20260503023139 55 284 1.7 4.3 0.00 0.03 0.03 68 1014.8
20260503023017 55 284 1.7 4.3 0.00 0.03 0.03 67 1014.8
20260503022941 55 292 1.7 4.3 0.00 0.03 0.03 67 1014.8
20260503022913 55 292 1.7 4.3 0.00 0.03 0.03 67 1014.8
20260503022824 55 292 1.7 4.3 0.00 0.03 0.03 67 1014.8
20260503022820 55 309 1.7 3.5 0.00 0.03 0.03 67 1014.8
20260503022815 55 264 1.7 3.5 0.00 0.03 0.03 68 1014.8
20260503022455 55 283 1.7 4.3 0.00 0.03 0.03 67 1014.8
20260503022352 56 282 1.7 4.3 0.00 0.03 0.03 67 1014.8
20260503022252 56 282 1.7 4.3 0.00 0.03 0.03 68 1014.8
20260503022152 56 282 1.7 4.3 0.00 0.03 0.03 68 1014.8
20260503022141 56 268 1.7 4.3 0.00 0.03 0.03 68 1014.8
20260503022102 56 278 1.7 4.3 0.00 0.03 0.03 67 1014.8
20260503022057 56 217 1.7 4.3 0.00 0.03 0.03 67 1014.8
20260503021852 56 299 1.7 4.3 0.00 0.03 0.03 67 1014.8
20260503021752 56 272 1.7 4.3 0.00 0.03 0.03 67 1014.7
20260503021650 56 321 1.7 4.3 0.00 0.03 0.03 68 1014.7
20260503021641 56 248 1.7 4.3 0.00 0.03 0.03 68 1014.7
20260503021550 56 271 1.7 4.3 0.00 0.03 0.03 67 1014.7
20260503021450 56 277 1.7 3.5 0.00 0.03 0.03 68 1014.7
20260503021349 56 303 1.7 3.5 0.00 0.03 0.03 67 1014.7
20260503021255 56 266 1.7 4.3 0.00 0.03 0.03 68 1014.7
20260503021251 56 264 1.7 3.5 0.00 0.03 0.03 67 1014.7
20260503021131 56 266 1.7 4.3 0.00 0.03 0.03 68 1014.7
20260503021047 56 275 2.6 4.3 0.00 0.03 0.03 67 1014.7
20260503021042 56 266 1.7 4.3 0.00 0.03 0.03 67 1014.7
20260503020834 56 275 2.6 4.3 0.00 0.03 0.03 68 1014.7
20260503020731 56 287 2.6 4.3 0.00 0.03 0.03 68 1014.7
20260503020630 56 286 2.6 4.3 0.00 0.03 0.03 68 1014.7
20260503020516 56 287 2.6 4.3 0.00 0.03 0.03 67 1014.7
20260503020408 56 280 2.6 4.3 0.00 0.03 0.03 68 1014.7
20260503020318 56 261 2.6 4.3 0.00 0.03 0.03 68 1014.7
20260503020313 56 314 2.6 4.3 0.00 0.03 0.03 68 1014.7
20260503020108 56 279 2.6 4.3 0.00 0.03 0.03 68 1014.7
20260503020001 56 252 1.7 4.3 0.00 0.03 0.03 68 1014.7
20260503015901 56 264 1.7 4.3 0.00 0.03 0.03 68 1014.7
20260503015850 56 277 1.7 4.3 0.00 0.03 0.03 68 1014.7
20260503015758 56 257 1.7 4.3 0.00 0.03 0.03 68 1014.7
20260503015724 56 277 1.7 4.3 0.00 0.03 0.03 68 1014.7
20260503015539 55 232 1.7 4.3 0.00 0.03 0.03 68 1014.7
20260503015436 55 277 1.7 4.3 0.00 0.03 0.03 68 1014.7
20260503015336 55 211 1.7 4.3 0.00 0.03 0.03 68 1014.7
20260503015233 55 266 1.7 4.3 0.00 0.03 0.03 68 1014.7
20260503015137 55 246 1.7 3.5 0.00 0.03 0.03 70 1014.7
20260503015129 55 251 1.7 4.3 0.00 0.03 0.03 69 1014.7
20260503014933 55 284 1.7 3.5 0.00 0.03 0.03 70 1014.8
20260503014929 55 265 1.7 3.5 0.00 0.03 0.03 70 1014.7
20260503014723 55 284 1.7 3.5 0.00 0.03 0.03 70 1014.8
20260503014618 55 295 1.7 4.3 0.00 0.03 0.03 70 1014.8
20260503014613 55 296 1.7 4.3 0.00 0.03 0.03 70 1014.8
20260503014516 55 245 1.7 4.3 0.00 0.03 0.03 70 1014.8
20260503014415 55 250 1.7 4.3 0.01 0.03 0.03 71 1014.8
20260503014316 55 261 1.7 4.3 0.01 0.03 0.03 70 1014.8
20260503014206 55 257 1.7 4.3 0.01 0.03 0.03 70 1014.8
20260503014106 55 259 1.7 4.3 0.01 0.03 0.03 71 1014.8
20260503013959 55 282 1.7 4.3 0.01 0.03 0.03 71 1014.8
20260503013858 55 282 1.7 4.3 0.03 0.03 0.03 71 1014.8
20260503013758 55 306 1.7 4.3 0.03 0.03 0.03 71 1014.8
20260503013709 55 297 1.7 4.3 0.03 0.03 0.03 71 1014.8
20260503013705 55 291 1.7 4.3 0.03 0.03 0.03 71 1014.8
20260503013700 55 303 1.7 4.3 0.03 0.03 0.03 71 1014.8
20260503013454 55 266 1.7 4.3 0.03 0.03 0.03 71 1014.8
20260503013355 55 279 1.7 3.5 0.03 0.03 0.03 71 1014.8
20260503013254 55 227 1.7 3.5 0.03 0.03 0.03 71 1015.0
20260503013225 55 228 0.0 3.5 0.03 0.03 0.03 72 1015.0
20260503013221 55 250 1.7 3.5 0.03 0.03 0.03 73 1015.0
20260503013215 55 249 1.7 3.5 0.03 0.03 0.03 72 1015.0
20260503013107 55 243 0.0 3.5 0.03 0.03 0.03 73 1015.0
20260503013103 55 248 1.7 3.5 0.03 0.03 0.03 72 1015.0
20260503012750 55 251 0.0 3.5 0.03 0.03 0.03 74 1015.0
20260503012639 55 261 0.0 2.6 0.03 0.03 0.03 76 1015.0
20260503012613 55 261 0.0 2.6 0.03 0.03 0.03 77 1015.0
20260503012535 55 262 0.0 1.7 0.03 0.03 0.03 78 1015.0
20260503012424 55 262 0.0 1.7 0.03 0.03 0.03 78 1015.0
20260503012322 55 262 0.0 1.7 0.03 0.03 0.03 77 1015.0
20260503012316 55 262 0.0 1.7 0.03 0.03 0.03 77 1015.0
20260503012112 55 262 0.0 1.7 0.03 0.03 0.03 76 1015.0
20260503011959 55 262 0.9 1.7 0.03 0.03 0.03 77 1015.0
20260503011850 55 262 0.9 1.7 0.03 0.03 0.03 78 1015.0
20260503011749 55 262 0.9 1.7 0.03 0.03 0.03 78 1015.0
20260503011635 55 262 0.9 1.7 0.03 0.03 0.03 78 1015.0
20260503011543 56 262 0.9 1.7 0.03 0.03 0.03 78 1015.0
20260503011535 55 262 0.9 1.7 0.03 0.03 0.03 78 1015.0
20260503011408 56 262 0.9 1.7 0.03 0.03 0.03 77 1015.0
20260503011317 56 262 0.9 2.6 0.03 0.03 0.03 77 1015.0
20260503011247 56 262 0.9 1.7 0.03 0.03 0.03 77 1015.0
20260503011151 56 262 0.9 1.7 0.03 0.03 0.03 77 1015.0
20260503011042 56 262 1.7 2.6 0.03 0.03 0.03 76 1015.0
20260503011038 56 262 0.9 2.6 0.03 0.03 0.03 77 1015.0
20260503010831 56 262 1.7 2.6 0.03 0.03 0.03 76 1015.0
20260503010712 56 262 1.7 3.5 0.03 0.03 0.03 76 1015.0
20260503010612 56 262 1.7 3.5 0.03 0.03 0.03 75 1015.0
20260503010540 56 262 1.7 3.5 0.03 0.03 0.03 75 1015.0
20260503010500 56 262 1.7 3.5 0.03 0.03 0.03 75 1015.0
20260503010406 56 262 1.7 3.5 0.03 0.03 0.03 74 1015.0
20260503010402 56 262 1.7 3.5 0.03 0.03 0.03 75 1015.0
20260503010156 56 262 1.7 3.5 0.03 0.03 0.03 74 1015.0
20260503010055 56 262 1.7 3.5 0.03 0.03 0.03 73 1015.0
20260503010016 56 262 1.7 3.5 0.03 0.03 0.03 73 1015.0
20260503005952 57 262 1.7 3.5 0.03 0.03 0.03 73 1015.0
20260503005845 57 262 1.7 3.5 0.03 0.03 0.03 72 1015.0
20260503005815 58 291 1.7 3.5 0.03 0.03 0.03 70 1015.0
20260503005744 57 266 1.7 3.5 0.03 0.03 0.03 71 1015.0
20260503005659 58 291 1.7 3.5 0.03 0.03 0.03 69 1015.0
20260503005655 57 271 1.7 3.5 0.03 0.03 0.03 71 1015.0
20260503005649 58 291 1.7 3.5 0.03 0.03 0.03 70 1015.0
20260503005334 58 291 1.7 3.5 0.03 0.03 0.03 68 1015.0
20260503005233 58 294 1.7 3.5 0.03 0.03 0.03 67 1015.0
20260503005132 59 280 1.7 3.5 0.03 0.03 0.03 67 1015.0
20260503005011 59 316 1.7 4.3 0.03 0.03 0.03 65 1015.0
20260503004922 59 316 3.5 5.2 0.03 0.03 0.03 65 1015.0
20260503004816 60 316 3.5 6.1 0.03 0.03 0.03 63 1014.8
20260503004717 60 267 3.5 6.1 0.03 0.03 0.03 61 1014.8
20260503004610 60 266 3.5 6.1 0.03 0.03 0.03 62 1014.8
20260503004556 62 158 3.5 8.7 0.02 0.02 0.02 54 1014.8
20260503004548 61 266 3.5 7.0 0.03 0.03 0.03 59 1014.8
20260503004438 63 139 3.5 8.7 0.02 0.02 0.02 53 1014.8
20260503004434 61 206 3.5 8.7 0.02 0.02 0.03 59 1014.8
20260503004324 63 138 2.6 8.7 0.02 0.02 0.02 53 1014.8
20260503004320 62 165 3.5 8.7 0.02 0.02 0.02 59 1014.8
20260503004315 62 169 3.5 8.7 0.02 0.02 0.02 57 1014.8
20260503003859 63 166 2.6 8.7 0.00 0.00 0.01 52 1014.8
20260503003800 64 173 2.6 8.7 0.00 0.00 0.01 51 1014.8
20260503003659 64 120 2.6 8.7 0.00 0.00 0.00 47 1014.8
20260503003600 64 98 2.6 8.7 0.00 0.00 0.00 45 1014.8
20260503003505 64 145 2.6 8.7 0.00 0.00 0.00 42 1014.8
20260503003459 64 147 2.6 8.7 0.00 0.00 0.00 42 1014.8
20260503003400 64 248 2.6 7.8 0.00 0.00 0.00 41 1014.8
20260503003259 64 186 2.6 7.8 0.00 0.00 0.00 41 1013.8
20260503003207 64 175 2.6 7.8 0.00 0.00 0.00 40 1013.8
20260503003203 64 156 2.6 7.8 0.00 0.00 0.00 41 1013.8
20260503003006 64 126 2.6 7.8 0.00 0.00 0.00 40 1013.8
20260503002957 64 113 1.7 7.8 0.00 0.00 0.00 40 1013.8
20260503002854 64 146 1.7 7.8 0.00 0.00 0.00 40 1013.8
20260503002754 64 157 1.7 7.8 0.00 0.00 0.00 40 1013.8
20260503002655 64 163 1.7 5.2 0.00 0.00 0.00 41 1013.8
20260503002554 64 166 1.7 4.3 0.00 0.00 0.00 40 1013.8
20260503002506 64 157 1.7 4.3 0.00 0.00 0.00 41 1013.8
20260503002455 64 155 1.7 4.3 0.00 0.00 0.00 41 1013.8
20260503002354 64 155 1.7 4.3 0.00 0.00 0.00 41 1013.8
20260503002255 64 173 1.7 4.3 0.00 0.00 0.00 41 1013.8
20260503002154 64 170 1.7 4.3 0.00 0.00 0.00 41 1013.8
20260503002055 65 190 1.7 3.5 0.00 0.00 0.00 43 1013.8
20260503002005 65 186 1.7 3.5 0.00 0.00 0.00 43 1013.8
20260503001954 65 186 1.7 3.5 0.00 0.00 0.00 43 1013.8
20260503001855 65 198 1.7 3.5 0.00 0.00 0.00 43 1013.8
20260503001759 65 186 1.7 3.5 0.00 0.00 0.00 43 1013.6
20260503001755 65 194 1.7 3.5 0.00 0.00 0.00 43 1013.6
20260503001549 65 222 1.7 2.6 0.00 0.00 0.00 43 1013.6
20260503001504 65 175 1.7 2.6 0.00 0.00 0.00 43 1013.6
20260503001449 65 175 1.7 2.6 0.00 0.00 0.00 43 1013.6
20260503001344 65 175 1.7 2.6 0.00 0.00 0.00 44 1013.6
20260503001245 65 175 1.7 2.6 0.00 0.00 0.00 43 1013.6
20260503001141 65 175 1.7 2.6 0.00 0.00 0.00 44 1013.6
20260503001131 65 175 1.7 2.6 0.00 0.00 0.00 44 1013.6
20260503001002 65 174 1.7 2.6 0.00 0.00 0.00 43 1013.6
20260503000915 65 174 1.7 2.6 0.00 0.00 0.00 43 1013.6
20260503000810 65 174 1.7 2.6 0.00 0.00 0.00 42 1013.6
20260503000702 65 168 1.7 2.6 0.00 0.00 0.00 42 1013.6
20260503000559 65 100 1.7 3.5 0.00 0.00 0.00 43 1013.6
20260503000513 65 30 1.7 3.5 0.00 0.00 0.00 43 1013.6
20260503000509 65 30 1.7 3.5 0.00 0.00 0.00 43 1013.6
20260503000504 65 29 1.7 3.5 0.00 0.00 0.00 43 1013.6
20260503000259 65 30 1.7 3.5 0.00 0.00 0.00 43 1013.6
20260503000207 65 29 1.7 7.0 0.00 0.00 0.00 43 1013.6
20260503000204 65 30 1.7 3.5 0.00 0.00 0.00 43 1013.6
20260502235955 65 30 2.6 7.0 0.00 0.00 0.00 42 1013.6
20260502235854 65 29 2.6 7.0 0.00 0.00 0.00 43 1013.6
20260502235752 65 29 2.6 8.7 0.00 0.00 0.00 42 1013.6
20260502235652 65 87 2.6 8.7 0.00 0.00 0.00 42 1013.6
20260502235552 65 5 2.6 8.7 0.00 0.00 0.00 42 1013.6
20260502235452 65 9 2.6 8.7 0.00 0.00 0.00 41 1013.6
20260502235444 65 86 2.6 8.7 0.00 0.00 0.00 41 1013.6
20260502235344 66 68 2.6 8.7 0.00 0.00 0.00 41 1013.6
20260502235245 66 149 2.6 8.7 0.00 0.00 0.00 40 1013.6
20260502235154 66 124 2.6 8.7 0.00 0.00 0.00 39 1013.6
20260502235150 66 162 2.6 8.7 0.00 0.00 0.00 39 1013.6
20260502234951 66 163 2.6 8.7 0.00 0.00 0.00 38 1013.6
20260502234945 66 165 2.6 8.7 0.00 0.00 0.00 39 1013.6
20260502234854 66 184 2.6 4.3 0.00 0.00 0.00 39 1013.1
20260502234850 66 159 2.6 8.7 0.00 0.00 0.00 38 1013.6
20260502234643 66 100 2.6 4.3 0.00 0.00 0.00 39 1013.1
20260502234540 66 194 2.6 4.3 0.00 0.00 0.00 40 1013.1
20260502234450 66 163 2.6 4.3 0.00 0.00 0.00 41 1013.1
20260502234439 66 155 2.6 4.3 0.00 0.00 0.00 41 1013.1
20260502234337 66 224 2.6 4.3 0.00 0.00 0.00 40 1013.1
20260502234227 66 252 2.6 4.3 0.00 0.00 0.00 40 1013.1
20260502234127 66 262 2.6 4.3 0.00 0.00 0.00 39 1013.1
20260502234027 66 263 2.6 4.3 0.00 0.00 0.00 39 1013.1
20260502233948 66 263 2.6 4.3 0.00 0.00 0.00 39 1013.1
20260502233932 66 271 2.6 5.2 0.00 0.00 0.00 39 1013.1
20260502233928 66 262 2.6 4.3 0.00 0.00 0.00 39 1013.1
20260502233722 66 314 2.6 6.1 0.00 0.00 0.00 39 1013.1
20260502233622 66 266 2.6 6.1 0.00 0.00 0.00 39 1013.1
20260502233522 66 250 2.6 6.1 0.00 0.00 0.00 39 1013.1
20260502233446 66 257 2.6 6.1 0.00 0.00 0.00 39 1013.1
20260502233419 66 264 2.6 6.1 0.00 0.00 0.00 39 1013.1
20260502233320 66 231 2.6 6.1 0.00 0.00 0.00 39 1013.1
20260502233219 66 288 2.6 6.1 0.00 0.00 0.00 39 1013.1
20260502233117 66 302 2.6 6.1 0.00 0.00 0.00 39 1013.1
20260502233015 67 277 2.6 6.1 0.00 0.00 0.00 39 1013.1
20260502232943 67 207 3.5 6.1 0.00 0.00 0.00 39 1013.1
20260502232912 67 303 3.5 6.1 0.00 0.00 0.00 39 1013.1
20260502232812 67 286 3.5 5.2 0.00 0.00 0.00 39 1013.1
20260502232713 67 303 3.5 5.2 0.00 0.00 0.00 38 1013.1
20260502232611 67 298 3.5 5.2 0.00 0.00 0.00 38 1013.1
20260502232531 67 265 3.5 5.2 0.00 0.00 0.00 38 1013.1
20260502232527 67 296 3.5 5.2 0.00 0.00 0.00 38 1013.1
20260502232522 67 285 3.5 5.2 0.00 0.00 0.00 38 1013.1
20260502232212 67 329 3.5 5.2 0.00 0.00 0.00 38 1013.1
20260502232121 67 303 3.5 5.2 0.00 0.00 0.00 37 1013.1
20260502232117 67 308 3.5 5.2 0.00 0.00 0.00 37 1013.1
20260502231940 67 274 3.5 5.2 0.00 0.00 0.00 37 1013.1
20260502231912 67 250 3.5 5.2 0.00 0.00 0.00 37 1013.1
20260502231812 68 312 3.5 7.0 0.00 0.00 0.00 37 1013.4
20260502231719 68 276 3.5 7.0 0.00 0.00 0.00 36 1013.4
20260502231715 68 0 3.5 7.0 0.00 0.00 0.00 37 1013.4
20260502231523 68 255 3.5 7.8 0.00 0.00 0.00 36 1013.4
20260502231519 68 264 3.5 7.0 0.00 0.00 0.00 36 1013.4
20260502231514 68 217 3.5 7.8 0.00 0.00 0.00 36 1013.4
20260502231310 68 308 3.5 7.8 0.00 0.00 0.00 36 1013.4
20260502231209 68 257 3.5 7.8 0.00 0.00 0.00 36 1013.4
20260502231107 69 288 3.5 7.8 0.00 0.00 0.00 36 1013.4
20260502231007 69 288 3.5 7.8 0.00 0.00 0.00 36 1013.4
20260502230940 69 289 2.6 7.8 0.00 0.00 0.00 36 1013.4
20260502230917 69 104 2.6 7.8 0.00 0.00 0.00 35 1013.4
20260502230913 69 19 2.6 7.8 0.00 0.00 0.00 35 1013.4
20260502230607 69 87 2.6 7.8 0.00 0.00 0.00 35 1013.4
20260502230507 69 37 2.6 7.8 0.00 0.00 0.00 34 1013.4
20260502230441 69 50 2.6 6.1 0.00 0.00 0.00 34 1013.4
20260502230407 69 276 2.6 6.1 0.00 0.00 0.00 34 1013.4
20260502230316 69 354 2.6 5.2 0.00 0.00 0.00 34 1013.4
20260502230312 69 62 2.6 5.2 0.00 0.00 0.00 34 1013.4
20260502230117 69 218 2.6 5.2 0.00 0.00 0.00 34 1013.4
20260502230113 69 189 2.6 5.2 0.00 0.00 0.00 35 1013.4
20260502225941 70 234 1.7 5.2 0.00 0.00 0.00 33 1013.4
20260502225914 70 276 1.7 5.2 0.00 0.00 0.00 33 1013.4
20260502225909 70 249 1.7 5.2 0.00 0.00 0.00 33 1013.4
20260502225705 70 301 1.7 5.2 0.00 0.00 0.00 33 1013.4
20260502225604 70 323 1.7 5.2 0.00 0.00 0.00 32 1013.4
20260502225455 70 303 1.7 5.2 0.00 0.00 0.00 32 1013.4
20260502225440 70 61 1.7 5.2 0.00 0.00 0.00 31 1013.4
20260502225404 70 28 1.7 4.3 0.00 0.00 0.00 31 1013.4
20260502225400 70 273 1.7 4.3 0.00 0.00 0.00 31 1013.4
20260502225154 70 317 1.7 4.3 0.00 0.00 0.00 31 1013.4
20260502225054 70 316 1.7 4.3 0.00 0.00 0.00 31 1013.4
20260502224955 70 306 1.7 4.3 0.00 0.00 0.00 31 1013.4
20260502224941 70 314 1.7 4.3 0.00 0.00 0.00 31 1013.4
20260502224854 70 282 1.7 3.5 0.00 0.00 0.00 31 1013.4
20260502224754 70 284 1.7 3.5 0.00 0.00 0.00 31 1013.6
20260502224655 70 288 1.7 3.5 0.00 0.00 0.00 31 1013.6
20260502224554 70 288 1.7 3.5 0.00 0.00 0.00 30 1013.6
20260502224440 69 269 1.7 2.6 0.00 0.00 0.00 31 1013.6
20260502224354 69 237 1.7 2.6 0.00 0.00 0.00 31 1013.6
20260502224250 69 180 1.7 4.3 0.00 0.00 0.00 31 1013.6
20260502224144 69 182 1.7 5.2 0.00 0.00 0.00 31 1013.6
20260502224139 69 183 1.7 5.2 0.00 0.00 0.00 32 1013.6
20260502223935 69 183 2.6 5.2 0.00 0.00 0.00 32 1013.6
20260502223824 69 265 2.6 5.2 0.00 0.00 0.00 31 1013.6
20260502223722 69 265 2.6 5.2 0.00 0.00 0.00 31 1013.6
20260502223654 69 64 2.6 5.2 0.00 0.00 0.00 31 1013.6
20260502223622 69 65 2.6 5.2 0.00 0.00 0.00 31 1013.6
20260502223529 69 65 2.6 5.2 0.00 0.00 0.00 31 1013.6
20260502223407 69 64 2.6 5.2 0.00 0.00 0.00 31 1013.6
20260502223254 69 198 2.6 5.2 0.00 0.00 0.00 31 1013.6
20260502223149 69 96 2.6 5.2 0.00 0.00 0.00 31 1013.6
20260502223047 69 253 2.6 7.0 0.00 0.00 0.00 31 1013.6
20260502222945 69 247 3.5 7.0 0.00 0.00 0.00 31 1013.6
20260502222923 69 264 3.5 7.0 0.00 0.00 0.00 31 1013.6
20260502222844 69 294 3.5 7.0 0.00 0.00 0.00 30 1013.6
20260502222744 69 327 3.5 7.0 0.00 0.00 0.00 30 1013.6
20260502222644 69 273 3.5 7.8 0.00 0.00 0.00 30 1013.6
20260502222545 69 279 3.5 8.7 0.00 0.00 0.00 30 1013.6
20260502222444 69 283 3.5 8.7 0.00 0.00 0.00 30 1013.6
20260502222423 69 276 3.5 8.7 0.00 0.00 0.00 30 1013.6
20260502222345 69 274 3.5 11.3 0.00 0.00 0.00 29 1013.6
20260502222253 69 180 3.5 11.3 0.00 0.00 0.00 29 1013.6
20260502222249 69 280 3.5 11.3 0.00 0.00 0.00 29 1013.6
20260502222045 69 308 3.5 11.3 0.00 0.00 0.00 29 1013.6
20260502221944 69 307 1.7 11.3 0.00 0.00 0.00 29 1013.6
20260502221924 69 290 1.7 11.3 0.00 0.00 0.00 28 1013.6
20260502221845 69 238 1.7 11.3 0.00 0.00 0.00 28 1013.6
20260502221744 69 346 1.7 11.3 0.00 0.00 0.00 29 1013.8
20260502221644 69 337 1.7 11.3 0.00 0.00 0.00 30 1013.8
20260502221459 69 200 1.7 5.2 0.00 0.00 0.00 33 1013.8
20260502221455 69 303 1.7 11.3 0.00 0.00 0.00 30 1013.8
20260502221449 69 304 1.7 11.3 0.00 0.00 0.00 32 1013.8
20260502221244 69 238 1.7 5.2 0.00 0.00 0.00 33 1013.8
20260502221145 69 176 1.7 5.2 0.00 0.00 0.00 33 1013.8
20260502221042 69 155 1.7 5.2 0.00 0.00 0.00 33 1013.8
20260502220942 69 154 1.7 5.2 0.00 0.00 0.00 33 1013.8
20260502220924 69 155 1.7 5.2 0.00 0.00 0.00 33 1013.8
20260502220842 68 144 1.7 5.2 0.00 0.00 0.00 33 1013.8
20260502220740 68 144 1.7 5.2 0.00 0.00 0.00 33 1013.8
20260502220638 68 182 1.7 5.2 0.00 0.00 0.00 33 1013.8
20260502220544 68 133 1.7 5.2 0.00 0.00 0.00 33 1013.8
20260502220540 68 158 1.7 5.2 0.00 0.00 0.00 33 1013.8
20260502220423 68 132 1.7 5.2 0.00 0.00 0.00 33 1013.8
20260502220334 68 154 1.7 3.5 0.00 0.00 0.00 34 1013.8
20260502220235 68 162 1.7 3.5 0.00 0.00 0.00 34 1014.2
20260502220124 68 162 1.7 4.3 0.00 0.00 0.00 33 1014.2
20260502220020 68 162 1.7 4.3 0.00 0.00 0.00 33 1014.2
20260502215923 68 161 1.7 4.3 0.00 0.00 0.00 35 1014.2
20260502215914 68 146 1.7 4.3 0.00 0.00 0.00 36 1014.2
20260502215814 68 170 1.7 4.3 0.00 0.00 0.00 35 1014.2
20260502215714 68 170 1.7 4.3 0.00 0.00 0.00 34 1014.2
20260502215612 68 170 1.7 4.3 0.00 0.00 0.00 33 1014.2
20260502215511 68 162 1.7 4.3 0.00 0.00 0.00 33 1014.2
20260502215410 67 161 1.7 4.3 0.00 0.00 0.00 33 1014.2
20260502215309 67 165 1.7 4.3 0.00 0.00 0.00 34 1014.2
20260502215210 67 177 1.7 4.3 0.00 0.00 0.00 33 1014.2
20260502215114 67 122 3.5 6.1 0.00 0.00 0.00 33 1014.2
20260502215110 67 151 1.7 4.3 0.00 0.00 0.00 34 1014.2
20260502214923 67 104 3.5 6.1 0.00 0.00 0.00 33 1014.2
20260502214904 67 185 3.5 6.1 0.00 0.00 0.00 33 1014.2
20260502214805 67 146 3.5 6.1 0.00 0.00 0.00 33 1014.7
20260502214704 67 184 3.5 6.1 0.00 0.00 0.00 34 1014.7
20260502214605 67 102 3.5 7.0 0.00 0.00 0.00 33 1014.7
20260502214454 67 101 3.5 7.8 0.00 0.00 0.00 33 1014.7
20260502214423 67 101 3.5 7.8 0.00 0.00 0.00 33 1014.7
20260502214355 67 101 3.5 7.8 0.00 0.00 0.00 34 1014.7
20260502214251 67 160 3.5 9.6 0.00 0.00 0.00 33 1014.7
20260502214154 67 170 3.5 9.6 0.00 0.00 0.00 32 1014.7
20260502214150 67 164 3.5 9.6 0.00 0.00 0.00 32 1014.7
20260502213955 68 156 4.3 13.9 0.00 0.00 0.00 32 1014.7
20260502213951 67 184 4.3 11.3 0.00 0.00 0.00 32 1014.7
20260502213946 67 183 4.3 13.9 0.00 0.00 0.00 32 1014.7
20260502213752 68 219 4.3 13.9 0.00 0.00 0.00 31 1014.7
20260502213748 68 156 4.3 13.9 0.00 0.00 0.00 32 1014.7
20260502213542 68 110 4.3 13.9 0.00 0.00 0.00 31 1014.7
20260502213442 68 199 4.3 13.9 0.00 0.00 0.00 31 1014.7
20260502213418 68 142 4.3 13.9 0.00 0.00 0.00 31 1014.7
20260502213342 68 56 4.3 13.9 0.00 0.00 0.00 31 1014.7
20260502213242 68 137 4.3 13.9 0.00 0.00 0.00 31 1014.5
20260502213149 69 47 3.5 13.0 0.00 0.00 0.00 31 1014.5
20260502213142 69 156 4.3 13.9 0.00 0.00 0.00 31 1014.5
20260502213133 69 131 3.5 13.9 0.00 0.00 0.00 31 1014.5
20260502213129 69 115 4.3 13.9 0.00 0.00 0.00 30 1014.5
20260502212842 69 137 3.5 13.0 0.00 0.00 0.00 31 1014.5
20260502212742 69 144 3.5 8.7 0.00 0.00 0.00 33 1014.5
20260502212641 69 130 3.5 7.8 0.00 0.00 0.00 33 1014.5
20260502212543 69 166 3.5 7.8 0.00 0.00 0.00 33 1014.5
20260502212440 69 173 3.5 7.8 0.00 0.00 0.00 32 1014.5
20260502212418 69 152 3.5 7.8 0.00 0.00 0.00 32 1014.5
20260502212340 69 148 3.5 7.8 0.00 0.00 0.00 33 1014.5
20260502212239 69 156 3.5 7.8 0.00 0.00 0.00 32 1014.5
20260502212135 69 144 3.5 7.0 0.00 0.00 0.00 32 1014.5
20260502212034 69 174 3.5 8.7 0.00 0.00 0.00 32 1014.5
20260502211948 69 155 2.6 8.7 0.00 0.00 0.00 32 1014.5
20260502211944 69 146 2.6 8.7 0.00 0.00 0.00 33 1014.5
20260502211938 69 137 2.6 8.7 0.00 0.00 0.00 32 1014.5
20260502211735 69 159 2.6 8.7 0.00 0.00 0.00 32 1014.7
20260502211634 69 180 2.6 8.7 0.00 0.00 0.00 32 1014.7
20260502211532 69 148 2.6 8.7 0.00 0.00 0.00 32 1014.7
20260502211455 69 113 2.6 8.7 0.00 0.00 0.00 32 1014.7
20260502211451 69 125 2.6 8.7 0.00 0.00 0.00 32 1014.7
20260502211447 69 168 2.6 8.7 0.00 0.00 0.00 33 1014.7
20260502211442 69 165 2.6 8.7 0.00 0.00 0.00 33 1014.7
20260502211131 69 154 2.6 8.7 0.00 0.00 0.00 32 1014.7
20260502211032 69 134 2.6 5.2 0.00 0.00 0.00 32 1014.7
20260502210931 69 155 2.6 5.2 0.00 0.00 0.00 33 1014.7
20260502210918 69 157 2.6 5.2 0.00 0.00 0.00 33 1014.7
20260502210832 69 168 2.6 5.2 0.00 0.00 0.00 32 1014.7
20260502210732 69 187 2.6 5.2 0.00 0.00 0.00 32 1014.7
20260502210632 69 155 2.6 5.2 0.00 0.00 0.00 33 1014.7
20260502210529 69 130 2.6 5.2 0.00 0.00 0.00 32 1014.7
20260502210443 69 165 2.6 5.2 0.00 0.00 0.00 33 1014.7
20260502210439 69 180 2.6 5.2 0.00 0.00 0.00 32 1014.7
20260502210433 69 168 2.6 5.2 0.00 0.00 0.00 32 1014.7
20260502210227 69 188 2.6 5.2 0.00 0.00 0.00 32 1014.7
20260502210127 69 189 2.6 5.2 0.00 0.00 0.00 33 1014.7
20260502210026 69 177 2.6 5.2 0.00 0.00 0.00 32 1014.7
20260502205923 69 180 1.7 5.2 0.00 0.00 0.00 32 1014.7
20260502205918 69 179 1.7 5.2 0.00 0.00 0.00 32 1014.7
20260502205822 69 160 1.7 5.2 0.00 0.00 0.00 32 1014.7
20260502205738 69 114 1.7 5.2 0.00 0.00 0.00 32 1014.7
20260502205734 69 175 1.7 5.2 0.00 0.00 0.00 32 1014.7
20260502205730 69 147 1.7 5.2 0.00 0.00 0.00 32 1014.7
20260502205420 69 112 1.7 5.2 0.00 0.00 0.00 32 1014.7
20260502205319 69 151 1.7 5.2 0.00 0.00 0.00 32 1014.7
20260502205217 69 164 1.7 5.2 0.00 0.00 0.00 32 1014.7
20260502205112 69 164 1.7 5.2 0.00 0.00 0.00 32 1014.7
20260502205000 69 167 1.7 5.2 0.00 0.00 0.00 32 1014.7
20260502204917 69 147 1.7 3.5 0.00 0.00 0.00 32 1014.7
20260502204859 69 148 1.7 3.5 0.00 0.00 0.00 32 1014.7
20260502204800 69 147 1.7 3.5 0.00 0.00 0.00 33 1014.7
20260502204658 69 89 1.7 3.5 0.00 0.00 0.00 32 1014.7
20260502204606 69 144 1.7 4.3 0.00 0.00 0.00 33 1014.7
20260502204602 69 170 1.7 4.3 0.00 0.00 0.00 32 1014.7
20260502204419 69 137 1.7 4.3 0.00 0.00 0.00 32 1014.7
20260502204355 69 127 1.7 4.3 0.00 0.00 0.00 32 1014.7
20260502204249 69 162 1.7 4.3 0.00 0.00 0.00 33 1014.7
20260502204150 69 156 1.7 5.2 0.00 0.00 0.00 32 1014.7
20260502204049 69 147 1.7 5.2 0.00 0.00 0.00 33 1014.7
20260502204012 69 151 1.7 5.2 0.00 0.00 0.00 32 1014.7
20260502204008 69 147 1.7 5.2 0.00 0.00 0.00 32 1014.7
20260502203958 69 147 1.7 5.2 0.00 0.00 0.00 33 1014.7
20260502203744 69 183 1.7 5.2 0.00 0.00 0.00 32 1014.7
20260502203740 69 145 1.7 5.2 0.00 0.00 0.00 32 1014.7
20260502203441 69 187 1.7 5.2 0.00 0.00 0.00 32 1014.8
20260502203432 69 185 1.7 5.2 0.00 0.00 0.00 32 1014.7
20260502203229 69 78 1.7 4.3 0.00 0.00 0.00 32 1014.8
20260502203225 69 136 1.7 5.2 0.00 0.00 0.00 32 1014.8
20260502203020 69 91 1.7 4.3 0.00 0.00 0.00 32 1014.8
20260502202919 69 159 1.7 4.3 0.00 0.00 0.00 33 1014.8
20260502202815 69 159 1.7 4.3 0.00 0.00 0.00 33 1014.8
20260502202712 69 159 1.7 4.3 0.00 0.00 0.00 33 1014.8
20260502202612 69 161 1.7 4.3 0.00 0.00 0.00 32 1014.8
20260502202512 69 271 1.7 4.3 0.00 0.00 0.00 32 1014.8
20260502202406 69 278 1.7 4.3 0.00 0.00 0.00 31 1014.8
20260502202311 69 127 1.7 4.3 0.00 0.00 0.00 32 1014.8
20260502202214 69 280 1.7 3.5 0.00 0.00 0.00 32 1014.8
20260502202210 69 92 1.7 4.3 0.00 0.00 0.00 33 1014.8
20260502202004 69 280 2.6 5.2 0.00 0.00 0.00 32 1014.8
20260502201905 69 255 2.6 7.0 0.00 0.00 0.00 32 1014.8
20260502201804 69 255 2.6 7.0 0.00 0.00 0.00 32 1014.9
20260502201720 69 269 2.6 7.0 0.00 0.00 0.00 31 1014.9
20260502201715 69 264 2.6 7.0 0.00 0.00 0.00 32 1014.9
20260502201711 69 255 2.6 7.0 0.00 0.00 0.00 32 1014.9
20260502201405 69 312 2.6 7.0 0.00 0.00 0.00 32 1014.9
20260502201359 69 312 2.6 7.0 0.00 0.00 0.00 32 1014.9
20260502201259 69 304 2.6 7.0 0.00 0.00 0.00 32 1014.9
20260502201154 69 153 2.6 7.0 0.00 0.00 0.00 32 1014.9
20260502201103 69 174 2.6 7.0 0.00 0.00 0.00 31 1014.9
20260502201059 69 144 2.6 7.0 0.00 0.00 0.00 31 1014.9
20260502200906 69 154 2.6 4.3 0.00 0.00 0.00 32 1014.9
20260502200852 69 140 2.6 4.3 0.00 0.00 0.00 31 1014.9
20260502200747 69 83 2.6 4.3 0.00 0.00 0.00 33 1014.9
20260502200647 69 161 2.6 4.3 0.00 0.00 0.00 33 1014.9
20260502200557 69 141 2.6 6.1 0.00 0.00 0.00 32 1014.9
20260502200553 69 161 2.6 4.3 0.00 0.00 0.00 33 1014.9
20260502200406 69 137 2.6 6.1 0.00 0.00 0.00 32 1014.9
20260502200347 69 133 2.6 6.1 0.00 0.00 0.00 32 1014.9
20260502200244 69 177 2.6 6.1 0.00 0.00 0.00 32 1015.0
20260502200152 69 76 2.6 6.1 0.00 0.00 0.00 32 1015.0
20260502200148 69 235 2.6 6.1 0.00 0.00 0.00 32 1015.0
20260502195940 69 163 2.6 6.1 0.00 0.00 0.00 32 1015.0
20260502195906 69 164 2.6 6.1 0.00 0.00 0.00 32 1015.0
20260502195839 69 164 2.6 6.1 0.00 0.00 0.00 32 1015.0
20260502195740 69 163 2.6 6.1 0.00 0.00 0.00 32 1015.0
20260502195639 69 164 2.6 6.1 0.00 0.00 0.00 31 1015.0
20260502195537 69 160 2.6 6.1 0.00 0.00 0.00 31 1015.0
20260502195450 69 158 2.6 4.3 0.00 0.00 0.00 31 1015.0
20260502195446 69 162 2.6 4.3 0.00 0.00 0.00 31 1015.0
20260502195441 69 158 2.6 4.3 0.00 0.00 0.00 32 1015.0
20260502195237 69 237 2.6 5.2 0.00 0.00 0.00 32 1015.0
20260502195137 69 253 2.6 7.8 0.00 0.00 0.00 31 1015.0
20260502195037 69 104 2.6 7.8 0.00 0.00 0.00 32 1015.0
20260502194935 69 157 2.6 7.8 0.00 0.00 0.00 32 1015.0
20260502194905 69 195 2.6 7.8 0.00 0.00 0.00 32 1015.0
20260502194834 69 89 2.6 7.8 0.00 0.00 0.00 32 1015.0
20260502194739 70 134 2.6 7.8 0.00 0.00 0.00 31 1015.0
20260502194735 70 243 2.6 7.8 0.00 0.00 0.00 31 1015.0
20260502194530 70 128 2.6 7.8 0.00 0.00 0.00 32 1015.0
20260502194427 70 326 2.6 7.8 0.00 0.00 0.00 31 1015.0
20260502194403 70 321 2.6 7.8 0.00 0.00 0.00 31 1015.0
20260502194327 70 289 2.6 7.8 0.00 0.00 0.00 31 1015.0
20260502194227 70 169 2.6 7.8 0.00 0.00 0.00 31 1015.0
20260502194144 70 176 3.5 4.3 0.00 0.00 0.00 31 1015.0
20260502194140 70 145 2.6 6.1 0.00 0.00 0.00 32 1015.0
20260502194030 70 172 2.6 4.3 0.00 0.00 0.00 31 1015.0
20260502193903 70 161 3.5 4.3 0.00 0.00 0.00 31 1015.0
20260502193825 70 170 3.5 4.3 0.00 0.00 0.00 31 1015.0
20260502193724 70 147 3.5 7.8 0.00 0.00 0.00 31 1015.0
20260502193625 70 146 3.5 7.8 0.00 0.00 0.00 31 1015.0
20260502193534 70 179 3.5 7.8 0.00 0.00 0.00 31 1015.0
20260502193530 70 166 3.5 7.8 0.00 0.00 0.00 32 1015.0
20260502193403 70 179 3.5 7.8 0.00 0.00 0.00 31 1015.0
20260502193322 70 188 3.5 7.8 0.00 0.00 0.00 32 1015.0
20260502193222 70 141 3.5 7.8 0.00 0.00 0.00 31 1015.0
20260502193122 70 121 3.5 7.8 0.00 0.00 0.00 31 1015.0
20260502193022 70 162 3.5 7.8 0.00 0.00 0.00 31 1015.0
20260502192922 70 342 2.6 7.8 0.00 0.00 0.00 31 1015.0
20260502192903 70 139 2.6 7.8 0.00 0.00 0.00 31 1015.0
20260502192823 70 112 2.6 7.8 0.00 0.00 0.00 31 1015.0
20260502192722 70 252 2.6 7.0 0.00 0.00 0.00 30 1015.0
20260502192628 70 283 2.6 7.0 0.00 0.00 0.00 31 1015.0
20260502192624 70 131 2.6 7.0 0.00 0.00 0.00 31 1015.0
20260502192420 70 257 2.6 7.0 0.00 0.00 0.00 31 1015.0
20260502192401 70 252 2.6 7.0 0.00 0.00 0.00 31 1015.0
20260502192317 70 141 2.6 7.0 0.00 0.00 0.00 31 1015.0
20260502192236 70 156 2.6 5.2 0.00 0.00 0.00 31 1015.0
20260502192232 70 80 2.6 5.2 0.00 0.00 0.00 31 1015.0
20260502192228 70 155 2.6 5.2 0.00 0.00 0.00 31 1015.0
20260502191915 70 161 3.5 6.1 0.00 0.00 0.00 30 1015.0
20260502191900 70 154 3.5 7.0 0.00 0.00 0.00 31 1015.0
20260502191814 70 160 3.5 7.0 0.00 0.00 0.00 31 1015.1
20260502191715 70 69 3.5 7.0 0.00 0.00 0.00 33 1015.1
20260502191614 70 68 3.5 7.0 0.00 0.00 0.00 31 1015.1
20260502191522 70 87 3.5 8.7 0.00 0.00 0.00 32 1015.1
20260502191518 70 153 3.5 8.7 0.00 0.00 0.00 32 1015.1
20260502191401 70 109 3.5 8.7 0.00 0.00 0.00 32 1015.1
20260502191317 70 76 3.5 8.7 0.00 0.00 0.00 31 1015.1
20260502191312 70 176 3.5 8.7 0.00 0.00 0.00 32 1015.1
20260502191116 70 55 3.5 10.4 0.00 0.00 0.00 31 1015.1
20260502191112 70 76 3.5 8.7 0.00 0.00 0.00 31 1015.1
20260502190907 70 54 2.6 10.4 0.00 0.00 0.00 31 1015.1
20260502190900 70 49 2.6 10.4 0.00 0.00 0.00 31 1015.1
20260502190816 70 115 2.6 10.4 0.00 0.00 0.00 31 1015.1
20260502190812 70 111 2.6 10.4 0.00 0.00 0.00 31 1015.1
20260502190604 71 24 2.6 10.4 0.00 0.00 0.00 30 1015.1
20260502190505 71 77 2.6 10.4 0.00 0.00 0.00 31 1015.1
20260502190425 71 188 2.6 10.4 0.00 0.00 0.00 31 1015.2
20260502190421 71 144 2.6 10.4 0.00 0.00 0.00 31 1015.1
20260502190415 71 154 2.6 10.4 0.00 0.00 0.00 31 1015.1
20260502190307 71 175 2.6 10.4 0.00 0.00 0.00 31 1015.2
20260502190133 71 174 2.6 5.2 0.00 0.00 0.00 33 1015.2
20260502190012 71 134 2.6 7.8 0.00 0.00 0.00 32 1015.2
20260502190006 71 174 2.6 5.2 0.00 0.00 0.00 33 1015.2
20260502185758 71 172 2.6 6.1 0.00 0.00 0.00 33 1015.2
20260502185651 71 175 2.6 9.6 0.00 0.00 0.00 32 1015.2
20260502185629 70 174 2.6 9.6 0.00 0.00 0.00 33 1015.2
20260502185547 70 166 2.6 9.6 0.00 0.00 0.00 32 1015.2
20260502185504 70 148 2.6 9.6 0.00 0.00 0.00 32 1015.2
20260502185347 70 129 2.6 9.6 0.00 0.00 0.00 33 1015.2
20260502185244 70 69 2.6 9.6 0.00 0.00 0.00 32 1015.2
20260502185137 70 149 2.6 9.6 0.00 0.00 0.00 32 1015.2
20260502185037 70 308 2.6 9.6 0.00 0.00 0.00 32 1015.2
20260502184937 70 74 3.5 9.6 0.00 0.00 0.00 31 1015.2
20260502184859 70 193 3.5 9.6 0.00 0.00 0.00 31 1015.2
20260502184846 70 91 3.5 9.6 0.00 0.00 0.00 31 1015.3
20260502184842 70 164 3.5 9.6 0.00 0.00 0.00 31 1015.2
20260502184637 70 164 3.5 4.3 0.00 0.00 0.00 32 1015.3
20260502184536 70 219 3.5 4.3 0.00 0.00 0.00 33 1015.3
20260502184438 70 173 3.5 7.0 0.00 0.00 0.00 33 1015.3
20260502184402 70 216 3.5 7.0 0.00 0.00 0.00 32 1015.3
20260502184358 70 112 3.5 7.0 0.00 0.00 0.00 33 1015.3
20260502184337 70 158 3.5 7.0 0.00 0.00 0.00 33 1015.3
20260502184239 70 63 3.5 7.0 0.00 0.00 0.00 33 1015.3
20260502184233 70 62 3.5 7.0 0.00 0.00 0.00 33 1015.3
20260502184035 70 62 3.5 7.0 0.00 0.00 0.00 33 1015.3
20260502184003 70 199 3.5 7.0 0.00 0.00 0.00 32 1015.3
20260502183834 70 59 3.5 7.0 0.00 0.00 0.00 32 1015.3
20260502183744 69 134 3.5 7.0 0.00 0.00 0.00 32 1015.3
20260502183740 70 115 3.5 7.0 0.00 0.00 0.00 33 1015.3
20260502183534 70 178 3.5 7.0 0.00 0.00 0.00 32 1015.3
20260502183448 69 140 3.5 7.8 0.00 0.00 0.00 33 1015.3
20260502183444 69 149 3.5 7.8 0.00 0.00 0.00 32 1015.3
20260502183439 69 101 3.5 7.8 0.00 0.00 0.00 33 1015.3
20260502183234 69 126 3.5 7.8 0.00 0.00 0.00 33 1015.5
20260502183132 69 169 3.5 7.8 0.00 0.00 0.00 32 1015.5
20260502183041 69 173 1.7 7.8 0.00 0.00 0.00 32 1015.5
20260502183037 69 190 3.5 7.8 0.00 0.00 0.00 33 1015.5
20260502182858 69 128 1.7 7.8 0.00 0.00 0.00 34 1015.5
20260502182832 69 82 1.7 7.8 0.00 0.00 0.00 33 1015.5
20260502182731 69 154 1.7 7.8 0.00 0.00 0.00 33 1015.5
20260502182632 69 104 1.7 7.8 0.00 0.00 0.00 33 1015.5
20260502182543 69 56 1.7 6.1 0.00 0.00 0.00 33 1015.5
20260502182538 69 148 1.7 7.8 0.00 0.00 0.00 33 1015.5
20260502182358 69 159 1.7 6.1 0.00 0.00 0.00 32 1015.5
20260502182341 69 154 1.7 6.1 0.00 0.00 0.00 33 1015.5
20260502182337 69 135 1.7 6.1 0.00 0.00 0.00 33 1015.5
20260502182132 69 171 1.7 4.3 0.00 0.00 0.00 35 1015.5
20260502182041 69 65 1.7 4.3 0.00 0.00 0.00 35 1015.5
20260502182037 69 66 1.7 4.3 0.00 0.00 0.00 35 1015.5
20260502181855 69 65 1.7 4.3 0.00 0.00 0.00 36 1015.5
20260502181832 68 65 1.7 4.3 0.00 0.00 0.00 36 1015.7
20260502181730 68 55 1.7 3.5 0.00 0.00 0.00 34 1015.7
20260502181630 68 135 1.7 3.5 0.00 0.00 0.00 34 1015.7
20260502181529 68 177 1.7 3.5 0.00 0.00 0.00 34 1015.7
20260502181525 68 178 1.7 3.5 0.00 0.00 0.00 34 1015.7
20260502181354 68 175 1.7 3.5 0.00 0.00 0.00 34 1015.7
20260502181319 68 166 1.7 3.5 0.00 0.00 0.00 34 1015.7
20260502181220 68 58 1.7 3.5 0.00 0.00 0.00 34 1015.7
20260502181114 68 49 1.7 3.5 0.00 0.00 0.00 36 1015.7
20260502181014 68 177 1.7 3.5 0.00 0.00 0.00 35 1015.7
20260502180914 68 181 1.7 3.5 0.00 0.00 0.00 34 1015.7
20260502180857 67 202 1.7 3.5 0.00 0.00 0.00 34 1015.7
20260502180853 68 175 1.7 3.5 0.00 0.00 0.00 34 1015.7
20260502180841 67 262 1.7 3.5 0.00 0.00 0.00 34 1015.7
20260502180838 68 80 1.7 3.5 0.00 0.00 0.00 34 1015.7
20260502180600 67 138 1.7 3.5 0.00 0.00 0.00 34 1015.7
20260502180504 67 133 1.7 3.5 0.00 0.00 0.00 34 1015.7
20260502180459 67 202 1.7 3.5 0.00 0.00 0.00 34 1015.7
20260502180254 67 202 1.7 3.5 0.00 0.00 0.00 35 1015.8
20260502180154 67 117 1.7 3.5 0.00 0.00 0.00 35 1015.8
20260502170439 65 214 1.7 3.5 0.00 0.00 0.00 36 1015.8
20260502170339 65 169 1.7 3.5 0.00 0.00 0.00 36 1015.8
20260502170246 65 143 1.7 4.3 0.00 0.00 0.00 37 1015.9
20260502170242 65 236 1.7 3.5 0.00 0.00 0.00 37 1015.9
20260502164336 64 353 1.7 3.5 0.00 0.00 0.00 38 1015.9
20260502164244 64 353 1.7 3.5 0.00 0.00 0.00 38 1015.9
20260502164238 64 353 1.7 3.5 0.00 0.00 0.00 37 1015.9
20260502164044 64 353 1.7 3.5 0.00 0.00 0.00 39 1015.9
20260502164040 64 353 1.7 3.5 0.00 0.00 0.00 37 1015.9
20260502163848 64 351 1.7 3.5 0.00 0.00 0.00 39 1015.9
20260502163844 64 354 1.7 3.5 0.00 0.00 0.00 39 1015.9
20260502163838 64 351 1.7 3.5 0.00 0.00 0.00 39 1015.9
20260502163640 63 350 1.7 3.5 0.00 0.00 0.00 38 1015.9
20260502163635 63 351 1.7 3.5 0.00 0.00 0.00 39 1015.9
20260502163425 63 190 1.7 3.5 0.00 0.00 0.00 38 1015.9
20260502163326 63 165 1.7 3.5 0.00 0.00 0.00 38 1015.9
20260502163321 63 165 1.7 3.5 0.00 0.00 0.00 39 1015.9
20260502163225 63 165 1.7 3.5 0.00 0.00 0.00 39 1015.9
20260502163119 63 164 1.7 3.5 0.00 0.00 0.00 39 1015.9
20260502163015 63 83 1.7 3.5 0.00 0.00 0.00 40 1015.9
20260502162914 63 176 1.7 3.5 0.00 0.00 0.00 39 1015.9
20260502162826 63 184 1.7 4.3 0.00 0.00 0.00 38 1015.9
20260502162818 63 175 1.7 3.5 0.00 0.00 0.00 39 1015.9
20260502162612 63 44 1.7 4.3 0.00 0.00 0.00 38 1015.9
20260502162509 62 44 1.7 4.3 0.00 0.00 0.00 38 1015.9
20260502162409 62 48 1.7 4.3 0.00 0.00 0.00 38 1015.9
20260502162313 62 48 1.7 4.3 0.00 0.00 0.00 38 1015.9
20260502162254 62 48 1.7 4.3 0.00 0.00 0.00 38 1015.9
20260502162155 62 47 1.7 4.3 0.00 0.00 0.00 39 1015.9
20260502162054 62 47 1.7 4.3 0.00 0.00 0.00 39 1015.9
20260502162004 62 137 1.7 4.3 0.00 0.00 0.00 40 1015.9
20260502162000 62 60 1.7 4.3 0.00 0.00 0.00 40 1015.9
20260502161808 62 137 1.7 4.3 0.00 0.00 0.00 39 1016.0
20260502161755 62 136 1.7 4.3 0.00 0.00 0.00 40 1016.0
20260502161654 62 173 1.7 3.5 0.00 0.00 0.00 40 1016.0
20260502161551 62 182 1.7 3.5 0.00 0.00 0.00 40 1016.0
20260502161444 62 181 1.7 3.5 0.00 0.00 0.00 41 1016.0
20260502161344 62 189 1.7 3.5 0.00 0.00 0.00 40 1016.0
20260502161308 62 189 1.7 3.5 0.00 0.00 0.00 40 1016.0
20260502161244 62 103 1.7 3.5 0.00 0.00 0.00 40 1016.0
20260502161144 62 124 1.7 2.6 0.00 0.00 0.00 40 1016.0
20260502161044 62 124 1.7 2.6 0.00 0.00 0.00 41 1016.0
20260502160939 62 190 1.7 2.6 0.00 0.00 0.00 40 1016.0
20260502160839 61 191 1.7 2.6 0.00 0.00 0.00 41 1016.0
20260502160808 61 191 1.7 2.6 0.00 0.00 0.00 40 1016.0
20260502160749 61 180 1.7 2.6 0.00 0.00 0.00 41 1016.0
20260502160745 61 191 1.7 2.6 0.00 0.00 0.00 40 1016.0
20260502160537 61 179 1.7 2.6 0.00 0.00 0.00 41 1016.0
20260502160436 61 179 1.7 2.6 0.00 0.00 0.00 41 1016.0
20260502160350 61 182 1.7 3.5 0.00 0.00 0.00 40 1016.0
20260502160346 61 181 1.7 2.6 0.00 0.00 0.00 41 1016.0
20260502160341 61 182 1.7 3.5 0.00 0.00 0.00 41 1016.0
20260502160146 61 184 1.7 3.5 0.00 0.00 0.00 40 1016.0
20260502160142 61 186 1.7 3.5 0.00 0.00 0.00 41 1016.0
20260502160138 61 184 1.7 3.5 0.00 0.00 0.00 40 1016.0
20260502152304 56 280 0.9 3.5 0.00 0.00 0.00 41 1015.9
20260502152253 56 280 0.9 2.6 0.00 0.00 0.00 41 1015.9
20260502152202 56 282 0.9 2.6 0.00 0.00 0.00 41 1015.9
20260502152102 56 281 0.9 2.6 0.00 0.00 0.00 43 1015.9
20260502152002 56 281 0.0 2.6 0.00 0.00 0.00 43 1015.9
20260502151902 56 281 0.0 2.6 0.00 0.00 0.00 42 1015.9
20260502151759 56 282 0.0 2.6 0.00 0.00 0.00 42 1015.9
20260502151753 56 281 0.0 2.6 0.00 0.00 0.00 42 1015.9
20260502151659 55 282 0.0 2.6 0.00 0.00 0.00 43 1015.9
20260502151554 55 281 0.0 2.6 0.00 0.00 0.00 42 1015.9
20260502151521 54 282 0.0 2.6 0.00 0.00 0.00 44 1015.9
20260502151455 55 282 0.0 2.6 0.00 0.00 0.00 43 1015.9
20260502151401 55 282 0.0 2.6 0.00 0.00 0.00 43 1015.9
20260502151356 55 282 0.0 2.6 0.00 0.00 0.00 44 1015.9
20260502151200 54 281 0.0 1.7 0.00 0.00 0.00 46 1015.9
20260502151156 54 281 0.0 1.7 0.00 0.00 0.00 45 1015.9
20260502150935 54 281 0.0 1.7 0.00 0.00 0.00 46 1015.9
20260502150814 54 281 0.0 1.7 0.00 0.00 0.00 47 1015.9
20260502150750 53 281 0.0 1.7 0.00 0.00 0.00 47 1015.9
20260502150714 53 281 0.0 1.7 0.00 0.00 0.00 47 1015.9
20260502150633 53 281 0.0 1.7 0.00 0.00 0.00 48 1015.9
20260502150629 53 281 0.0 1.7 0.00 0.00 0.00 47 1015.9
20260502150519 53 281 0.0 1.7 0.00 0.00 0.00 47 1015.9
20260502150314 53 281 0.0 1.7 0.00 0.00 0.00 48 1015.8
20260502150219 53 281 0.0 1.7 0.00 0.00 0.00 51 1015.8
20260502150215 53 281 0.0 1.7 0.00 0.00 0.00 48 1015.8
20260502140128 48 282 1.7 2.6 0.00 0.00 0.00 54 1015.3
20260502130700 47 282 1.7 2.6 0.00 0.00 0.00 48 1015.1
20260502130553 47 282 1.7 2.6 0.00 0.00 0.00 48 1015.1
20260502130459 47 282 1.7 2.6 0.00 0.00 0.00 48 1015.1
20260502130451 47 282 1.7 2.6 0.00 0.00 0.00 48 1015.1
20260502130234 47 282 1.7 2.6 0.00 0.00 0.00 48 1015.1
20260502130134 47 282 1.7 2.6 0.00 0.00 0.00 48 1015.1
20260502123738 47 282 1.7 3.5 0.00 0.00 0.00 47 1015.1
20260502123636 47 282 1.7 2.6 0.00 0.00 0.00 48 1015.1
20260502123537 47 282 1.7 2.6 0.00 0.00 0.00 48 1015.1
20260502123505 47 282 1.7 2.6 0.00 0.00 0.00 48 1015.1
20260502123435 47 282 1.7 3.5 0.00 0.00 0.00 48 1015.1
20260502123332 47 282 1.7 3.5 0.00 0.00 0.00 47 1015.1
20260502123236 47 282 1.7 3.5 0.00 0.00 0.00 47 1015.0
20260502123228 47 282 1.7 3.5 0.00 0.00 0.00 47 1015.0
20260502123128 47 282 1.7 3.5 0.00 0.00 0.00 47 1015.0
20260502123111 47 282 1.7 3.5 0.00 0.00 0.00 47 1015.0
20260502122924 47 282 1.7 3.5 0.00 0.00 0.00 47 1015.0
20260502122916 47 282 1.7 3.5 0.00 0.00 0.00 47 1015.0
20260502122709 47 282 1.7 3.5 0.00 0.00 0.00 47 1015.0
20260502122607 47 282 1.7 3.5 0.00 0.00 0.00 47 1015.0
20260502122506 47 282 1.7 3.5 0.00 0.00 0.00 47 1015.0
20260502122404 47 282 1.7 2.6 0.00 0.00 0.00 47 1015.0
20260502122306 47 282 1.7 2.6 0.00 0.00 0.00 47 1015.0
20260502122205 47 282 1.7 2.6 0.00 0.00 0.00 47 1015.0
20260502122104 47 282 1.7 2.6 0.00 0.00 0.00 48 1015.0
20260502122005 47 282 1.7 2.6 0.00 0.00 0.00 48 1015.0
20260502121959 47 282 1.7 2.6 0.00 0.00 0.00 48 1015.0
20260502121854 47 282 1.7 2.6 0.00 0.00 0.00 47 1015.0
20260502121746 47 282 1.7 3.5 0.00 0.00 0.00 47 1015.1
20260502121646 47 282 1.7 3.5 0.00 0.00 0.00 47 1015.1
20260502121544 47 282 1.7 3.5 0.00 0.00 0.00 47 1015.1
20260502121505 47 282 1.7 3.5 0.00 0.00 0.00 47 1015.1
20260502121453 47 282 1.7 3.5 0.00 0.00 0.00 47 1015.1
20260502121449 47 282 1.7 3.5 0.00 0.00 0.00 47 1015.1
20260502121242 47 282 1.7 3.5 0.00 0.00 0.00 46 1015.1
20260502121237 47 282 1.7 3.5 0.00 0.00 0.00 46 1015.1
20260502121128 47 282 1.7 3.5 0.00 0.00 0.00 46 1015.1
20260502121111 47 282 1.7 3.5 0.00 0.00 0.00 46 1015.1
20260502120911 47 282 1.7 3.5 0.00 0.00 0.00 46 1015.1
20260502120831 47 281 1.7 2.6 0.00 0.00 0.00 47 1015.0
20260502120827 47 281 1.7 2.6 0.00 0.00 0.00 47 1015.1
20260502120823 47 282 1.7 3.5 0.00 0.00 0.00 46 1015.1
20260502120713 47 282 1.7 3.5 0.00 0.00 0.00 47 1015.1
20260502120708 47 282 1.7 3.5 0.00 0.00 0.00 47 1015.1
20260502120558 47 282 1.7 3.5 0.00 0.00 0.00 47 1015.1
20260502120554 47 281 1.7 3.5 0.00 0.00 0.00 47 1015.1
20260502120139 47 281 1.7 2.6 0.00 0.00 0.00 47 1015.0
20260502115924 47 281 1.7 2.6 0.00 0.00 0.00 47 1015.0
20260502115811 47 281 1.7 2.6 0.00 0.00 0.00 47 1015.0
20260502115704 47 281 1.7 1.7 0.00 0.00 0.00 46 1015.0
20260502115602 47 281 1.7 1.7 0.00 0.00 0.00 46 1015.0
20260502115519 47 281 1.7 1.7 0.00 0.00 0.00 46 1015.0
20260502115511 47 281 1.7 1.7 0.00 0.00 0.00 47 1015.0
20260502115401 47 281 1.7 1.7 0.00 0.00 0.00 46 1015.0
20260502115156 47 281 1.7 1.7 0.00 0.00 0.00 46 1015.0
20260502115054 47 281 1.7 1.7 0.00 0.00 0.00 46 1015.0
20260502114947 47 281 1.7 1.7 0.00 0.00 0.00 46 1015.0
20260502114854 47 281 1.7 1.7 0.00 0.00 0.00 46 1015.0
20260502114754 48 281 1.7 1.7 0.00 0.00 0.00 46 1015.0
20260502114643 48 281 1.7 2.6 0.00 0.00 0.00 46 1015.0
20260502114542 48 281 1.7 2.6 0.00 0.00 0.00 46 1015.0
20260502114436 48 281 1.7 2.6 0.00 0.00 0.00 45 1015.0
20260502114331 48 281 1.7 2.6 0.00 0.00 0.00 45 1015.0
20260502114210 48 281 1.7 2.6 0.00 0.00 0.00 45 1015.0
20260502114109 48 281 1.7 2.6 0.00 0.00 0.00 45 1015.0
20260502114006 48 281 1.7 2.6 0.00 0.00 0.00 45 1015.0
20260502113938 48 281 1.7 2.6 0.00 0.00 0.00 45 1015.0
20260502113854 48 281 1.7 2.6 0.00 0.00 0.00 45 1015.0
20260502113739 48 281 1.7 2.6 0.00 0.00 0.00 45 1015.0
20260502113730 48 281 1.7 2.6 0.00 0.00 0.00 45 1015.0
20260502113726 48 281 1.7 3.5 0.00 0.00 0.00 44 1015.0
20260502113525 48 281 1.7 2.6 0.00 0.00 0.00 44 1015.0
20260502113404 48 281 1.7 3.5 0.00 0.00 0.00 44 1015.1
20260502113400 48 281 1.7 3.5 0.00 0.00 0.00 45 1015.1
20260502113355 48 281 1.7 3.5 0.00 0.00 0.00 44 1015.0
20260502113041 48 281 1.7 3.5 0.00 0.00 0.00 45 1015.1
20260502112913 48 281 1.7 3.5 0.00 0.00 0.00 44 1015.1
20260502112901 48 281 1.7 3.5 0.00 0.00 0.00 44 1015.1
20260502112801 48 281 1.7 3.5 0.00 0.00 0.00 44 1015.1
20260502112650 48 281 1.7 3.5 0.00 0.00 0.00 44 1015.1
20260502112644 48 281 1.7 2.6 0.00 0.00 0.00 44 1015.1
20260502112549 48 281 1.7 3.5 0.00 0.00 0.00 44 1015.1
20260502112518 48 281 1.7 2.6 0.00 0.00 0.00 45 1015.1
20260502112336 48 281 1.7 2.6 0.00 0.00 0.00 44 1015.1
20260502112229 48 281 1.7 3.5 0.00 0.00 0.00 45 1015.1
20260502112129 48 281 1.7 3.5 0.00 0.00 0.00 45 1015.1
20260502112026 48 281 1.7 3.5 0.00 0.00 0.00 45 1015.1
20260502112018 48 281 1.7 3.5 0.00 0.00 0.00 44 1015.1
20260502111853 48 281 1.7 3.5 0.00 0.00 0.00 45 1015.1
20260502111848 48 281 1.7 3.5 0.00 0.00 0.00 45 1015.0
20260502111808 48 281 1.7 3.5 0.00 0.00 0.00 44 1015.0
20260502111723 48 281 1.7 3.5 0.00 0.00 0.00 44 1015.0
20260502111556 48 281 1.7 3.5 0.00 0.00 0.00 44 1015.0
20260502111500 48 281 1.7 3.5 0.00 0.00 0.00 44 1015.0
20260502111456 48 281 1.7 3.5 0.00 0.00 0.00 44 1015.0
20260502111451 48 281 1.7 3.5 0.00 0.00 0.00 45 1015.0
20260502111141 48 281 1.7 3.5 0.00 0.00 0.00 45 1015.0
20260502111112 48 280 1.7 2.6 0.00 0.00 0.00 44 1015.0
20260502111100 49 280 1.7 2.6 0.00 0.00 0.00 44 1015.0
20260502111056 48 281 1.7 2.6 0.00 0.00 0.00 44 1015.0
20260502110946 48 281 1.7 2.6 0.00 0.00 0.00 44 1015.0
20260502110837 49 280 1.7 2.6 0.00 0.00 0.00 44 1015.0
20260502110632 49 281 1.7 2.6 0.00 0.00 0.00 44 1015.0
20260502110533 49 280 1.7 2.6 0.00 0.00 0.00 44 1015.0
20260502110528 49 280 1.7 2.6 0.00 0.00 0.00 44 1015.0
20260502110337 49 280 1.7 2.6 0.00 0.00 0.00 44 1015.0
20260502110324 49 281 1.7 2.6 0.00 0.00 0.00 44 1015.0
20260502110232 49 280 1.7 2.6 0.00 0.00 0.00 44 1015.0
20260502110228 49 280 1.7 2.6 0.00 0.00 0.00 44 1015.0
20260502110016 49 280 1.7 2.6 0.00 0.00 0.00 44 1015.0
20260502105909 49 280 1.7 2.6 0.00 0.00 0.00 43 1015.0
20260502105808 49 280 1.7 2.6 0.00 0.00 0.00 43 1015.0
20260502105646 49 280 1.7 2.6 0.00 0.00 0.00 43 1015.0
20260502105544 49 280 1.7 2.6 0.00 0.00 0.00 43 1015.0
20260502105539 49 280 1.7 2.6 0.00 0.00 0.00 43 1015.0
20260502105345 49 280 1.7 2.6 0.00 0.00 0.00 43 1015.0
20260502105336 49 280 1.7 2.6 0.00 0.00 0.00 43 1015.0
20260502105126 49 280 1.7 2.6 0.00 0.00 0.00 43 1015.0
20260502105027 49 280 1.7 2.6 0.00 0.00 0.00 43 1015.0
20260502104911 49 280 1.7 2.6 0.00 0.00 0.00 43 1015.0
20260502104810 49 281 1.7 2.6 0.00 0.00 0.00 43 1015.0
20260502104806 49 280 1.7 2.6 0.00 0.00 0.00 43 1015.0
20260502104701 49 280 1.7 2.6 0.00 0.00 0.00 43 1015.0
20260502104600 49 280 1.7 2.6 0.00 0.00 0.00 42 1015.0
20260502104449 49 280 1.7 2.6 0.00 0.00 0.00 42 1015.0
20260502104344 49 280 1.7 2.6 0.00 0.00 0.00 42 1015.0
20260502104308 49 280 1.7 2.6 0.00 0.00 0.00 41 1015.0
20260502104244 49 280 1.7 2.6 0.00 0.00 0.00 41 1015.0
20260502104144 49 280 1.7 2.6 0.00 0.00 0.00 41 1015.0
20260502104044 49 280 1.7 2.6 0.00 0.00 0.00 41 1015.0
20260502103928 49 280 1.7 2.6 0.00 0.00 0.00 42 1015.0
20260502103814 49 280 1.7 2.6 0.00 0.00 0.00 41 1015.0
20260502103807 49 281 1.7 2.6 0.00 0.00 0.00 41 1015.0
20260502103713 49 280 1.7 2.6 0.00 0.00 0.00 42 1015.0
20260502103612 49 280 1.7 2.6 0.00 0.00 0.00 42 1015.0
20260502103500 50 280 1.7 2.6 0.00 0.00 0.00 42 1015.0
20260502103456 50 280 1.7 2.6 0.00 0.00 0.00 42 1015.0
20260502103308 50 280 1.7 2.6 0.00 0.00 0.00 42 1014.9
20260502103250 50 280 1.7 2.6 0.00 0.00 0.00 42 1014.9
20260502103141 50 280 1.7 2.6 0.00 0.00 0.00 42 1014.9
20260502103042 50 280 1.7 2.6 0.00 0.00 0.00 42 1014.9
20260502102941 50 280 1.7 2.6 0.00 0.00 0.00 42 1014.9
20260502102839 50 280 1.7 2.6 0.00 0.00 0.00 42 1014.9
20260502102805 50 280 1.7 2.6 0.00 0.00 0.00 42 1014.9
20260502102720 50 280 1.7 2.6 0.00 0.00 0.00 42 1014.9
20260502102617 50 280 1.7 2.6 0.00 0.00 0.00 42 1014.9
20260502102516 50 280 1.7 2.6 0.00 0.00 0.00 41 1014.9
20260502102504 50 280 1.7 2.6 0.00 0.00 0.00 41 1014.9
20260502102313 50 280 1.7 2.6 0.00 0.00 0.00 40 1014.9
20260502102308 50 280 1.7 2.6 0.00 0.00 0.00 41 1014.9
20260502102306 50 280 1.7 2.6 0.00 0.00 0.00 41 1014.9
20260502102048 50 280 1.7 2.6 0.00 0.00 0.00 40 1014.9
20260502101946 50 280 1.7 2.6 0.00 0.00 0.00 40 1014.9
20260502101845 50 280 1.7 2.6 0.00 0.00 0.00 40 1014.9
20260502101743 50 280 1.7 2.6 0.00 0.00 0.00 40 1014.9
20260502101707 50 280 1.7 2.6 0.00 0.00 0.00 40 1014.9
20260502101600 50 280 1.7 2.6 0.00 0.00 0.00 39 1014.9
20260502101524 50 280 1.7 2.6 0.00 0.00 0.00 40 1014.9
20260502101443 50 280 1.7 2.6 0.00 0.00 0.00 39 1014.9
20260502101439 50 280 1.7 2.6 0.00 0.00 0.00 40 1014.9
20260502101434 50 280 1.7 2.6 0.00 0.00 0.00 40 1014.9
20260502101119 50 280 1.7 1.7 0.00 0.00 0.00 39 1014.9
20260502101001 50 280 1.7 1.7 0.00 0.00 0.00 39 1014.9
20260502100856 50 280 1.7 1.7 0.00 0.00 0.00 39 1014.9
20260502100756 50 280 1.7 1.7 0.00 0.00 0.00 39 1014.9
20260502100742 50 280 1.7 1.7 0.00 0.00 0.00 38 1014.9
20260502100656 50 280 1.7 2.6 0.00 0.00 0.00 38 1014.9
20260502100552 50 280 1.7 2.6 0.00 0.00 0.00 39 1014.9
20260502100546 50 280 1.7 2.6 0.00 0.00 0.00 39 1014.9
20260502100346 50 280 1.7 2.6 0.00 0.00 0.00 40 1014.9
20260502100341 50 280 1.7 2.6 0.00 0.00 0.00 39 1015.0
20260502100225 50 280 1.7 2.6 0.00 0.00 0.00 39 1015.0
20260502100221 50 280 1.7 2.6 0.00 0.00 0.00 39 1015.0
20260502091450 51 280 1.7 3.5 0.00 0.00 0.00 39 1015.3
20260502091342 51 280 1.7 3.5 0.00 0.00 0.00 39 1015.3
20260502091241 51 280 1.7 3.5 0.00 0.00 0.00 39 1015.3
20260502091139 51 280 1.7 3.5 0.00 0.00 0.00 40 1015.3
20260502091031 51 280 1.7 3.5 0.00 0.00 0.00 38 1015.3
20260502090921 51 280 1.7 2.6 0.00 0.00 0.00 39 1015.3
20260502090819 51 280 1.7 2.6 0.00 0.00 0.00 39 1015.3
20260502090717 51 280 1.7 1.7 0.00 0.00 0.00 39 1015.3
20260502090638 51 280 1.7 1.7 0.00 0.00 0.00 40 1015.3
20260502090606 51 280 1.7 1.7 0.00 0.00 0.00 39 1015.3
20260502090458 51 279 1.7 1.7 0.00 0.00 0.00 39 1015.3
20260502090354 52 280 1.7 1.7 0.00 0.00 0.00 39 1015.3
20260502090250 52 280 1.7 1.7 0.00 0.00 0.00 39 1015.6
20260502090136 52 280 1.7 1.7 0.00 0.00 0.00 40 1015.6
20260502071426 54 276 1.7 2.6 0.00 0.00 0.00 42 1016.0
20260502071419 54 276 1.7 2.6 0.00 0.00 0.00 41 1016.0
20260502071314 54 276 1.7 2.6 0.00 0.00 0.00 41 1016.0
20260502071300 54 276 1.7 2.6 0.00 0.00 0.00 41 1016.0
20260502071106 54 276 1.7 2.6 0.00 0.00 0.00 41 1016.0
20260502071029 54 277 1.7 2.6 0.00 0.00 0.00 42 1016.0
20260502070903 54 276 1.7 2.6 0.00 0.00 0.00 42 1016.0
20260502070756 54 276 1.7 2.6 0.00 0.00 0.00 42 1016.0
20260502070644 54 276 1.7 2.6 0.00 0.00 0.00 42 1016.0
20260502070541 54 276 1.7 2.6 0.00 0.00 0.00 42 1016.0
20260502070452 54 276 1.7 2.6 0.00 0.00 0.00 42 1016.0
20260502070443 54 276 1.7 2.6 0.00 0.00 0.00 42 1016.0